"Pseudo-MPEC" for CALRMA2

Created 2024 May 17 4:22:07 UT using Find_Orb

Click here for an explanation of pseudo-MPECs

 
 Astrometry: 
     CALRMA2*1C2024 05 13.16266310 15 58.511+32 07 59.63   ~5D4b 20.30GVNEOCPG96
     CALRMA2 1C2024 05 13.16791810 16 00.368+32 08 00.82   ~5D4b 20.18GVNEOCPG96
     CALRMA2 1C2024 05 13.17315810 16 02.226+32 08 01.90   ~5D4b 19.83GVNEOCPG96
     CALRMA2 1C2024 05 13.17840210 16 04.076+32 08 03.16   ~5D4b 20.10GVNEOCPG96
     CALRMA2 KC2024 05 13.24245310 16 26.735+32 08 17.16   ~5D6M 19.78GVNEOCPI52
     CALRMA2 KC2024 05 13.24477310 16 27.469+32 08 17.30   ~5D6M 19.72GVNEOCPI52
     CALRMA2 KC2024 05 13.24709010 16 28.326+32 08 17.88   ~5D6M 20.25GVNEOCPI52
     CALRMA2 KC2024 05 13.24941410 16 29.168+32 08 18.71   ~5D6M 20.24GVNEOCPI52
     CALRMA2  C2024 05 13.25881510 16 32.472+32 08 19.18   ~5D77 20.0 GVNEOCPH01
     CALRMA2  C2024 05 13.26213310 16 33.657+32 08 19.87   ~5D77 19.9 GVNEOCPH01
     CALRMA2  C2024 05 13.27397610 16 37.870+32 08 22.09   ~5D77 19.6 GVNEOCPH01
     CALRMA2  C2024 05 13.27973210 16 39.923+32 08 23.24   ~5D77 19.5 GVNEOCPH01
     CALRMA2 KC2024 05 13.30078510 16 47.464+32 08 28.90   ~5D7q 20.38GVNEOCPI52
     CALRMA2 KC2024 05 13.30310810 16 48.281+32 08 29.00   ~5D7q 20.27GVNEOCPI52
     CALRMA2 KC2024 05 13.30542710 16 49.105+32 08 29.54   ~5D7q 20.37GVNEOCPI52
     CALRMA2 KC2024 05 13.30775110 16 49.883+32 08 29.87   ~5D7q 20.16GVNEOCPI52
     CALRMA2 KB2024 05 13@t1V36)TNy$SdJYXN%)nsTMYIf`B.5_(/J^v`gP5ATB+Y!aZ!UTUP13
     CALRMA2 KB2024 05 13]3XIM!1b:9Astrometryqdwm%?w:`,6Ee7cK?6%Ns8-ve..'H!RfP13
     CALRMA2 1C2024 05 13.84672 10 20 02.22 +32 10 38.3    ~5DLb 20.8 VXNEOCP033
     CALRMA2 1C2024 05 13.84736 10 20 02.45 +32 10 38.5    ~5DLb 20.8 VXNEOCP033
     CALRMA2 1C2024 05 13.84798 10 20 02.68 +32 10 38.3    ~5DLb 20.8 VXNEOCP033
     CALRMA2 1C2024 05 13.84861 10 20 02.86 +32 10 38.6    ~5DLb 20.4 VXNEOCP033
     CALRMA2 6C2024 05 13yykredacted;w+X)u#H2AN8`d=4]VuZu)B#+C/rv/cn,ILiD*71KZ84
     CALRMA2 6C2024 05 13eIePfSgvO!LXC)dA86=Gy2-H8vGB3XGS'2]GfJD;clickLJMISkjZ84
     CALRMA2 KB2024 05 13k'.m't)2QP/.VqiiTk/%iJ+9wTlCE7J-*Q'_5m6e.NhereYq4b1mY66
     CALRMA2 KB2024 05 13+5xDf-j/,(Z9fforet%Ao@x$n1*explanation?3r\xfg32y%V/1Y66
     CALRMA2 1C2024 05 13.98190 10 20 48.74 +32 11 00.3    ~5E7M 21.2 VXNEOCP033
     CALRMA2 1C2024 05 13.98259 10 20 49.01 +32 11 00.5    ~5E7M 21.1 VXNEOCP033
     CALRMA2 1C2024 05 13.98328 10 20 49.20 +32 11 00.1    ~5E7M 21.3 VXNEOCP033
     CALRMA2 mC2024 05 14.13827310 21 43.632+32 11 47.18   ~5E3q 20.56GVNEOCPI52
     CALRMA2 mC2024 05 14.13881310 21 43.808+32 11 47.15   ~5E3q 20.52GVNEOCPI52
     CALRMA2 mC2024 05 14.14240710 21 45.018+32 11 48.01   ~5E3q 20.87GVNEOCPI52
     CALRMA2 mC2024 05 14.14294810 21 45.205+32 11 48.05   ~5E3q 20.21GVNEOCPI52
     CALRMA2  C2024 05 14.25969310 22 24.212+32 12 03.06   ~5E6q 20.1 GVNEOCPH01
     CALRMA2  C2024 05 14.26451710 22 25.838+32 12 03.63   ~5E6q 20.1 GVNEOCPH01
     CALRMA2  C2024 05 14.27341510 22 28.833+32 12 04.59   ~5E6q 20.0 GVNEOCPH01
     CALRMA2  C2024 05 14.28148410 22 31.553+32 12 05.36   ~5E6q 19.9 GVNEOCPH01
     CALRMA2 1C2024 05 14.85643 10 25 45.94 +32 13 34.4    ~5ELM 20.6 VXNEOCP033
     CALRMA2 1C2024 05 14.85723 10 25 46.19 +32 13 35.1    ~5ELM 21.0 VXNEOCP033
     CALRMA2 1C2024 05 14.85803 10 25 46.46 +32 13 34.7    ~5ELM 21.0 VXNEOCP033
     CALRMA2 1C2024 05 14.97315 10 26 24.02 +32 13 44.8    ~5ENq 20.6 VXNEOCP033
     CALRMA2 1C2024 05 14.97400 10 26 24.24 +32 13 44.8    ~5ENq 20.6 VXNEOCP033
     CALRMA2 1C2024 05 14.97487 10 26 24.53 +32 13 45.4    ~5ENq 20.4 VXNEOCP033

Station data:
(033) Karl Schwarzschild Observatory, Tautenburg  (N50.980139 E11.711240)
   Germany.  Observer B. Stecklum. 1.34-m f/3 Schmidt + CCD.
(G96) Mt. Lemmon Survey  (N32.442729 W110.788720)  US/Arizona.  Observer E.
   J. Christensen. 1.5-m reflector + 10K CCD.
(H01) Magdalena Ridge Observatory, Socorro  (N33.984833 W107.189333)  US/New
   Mexico.  Observers W. H. Ryan, E. V. Ryan. Measurer W. H. Ryan. 2.4-m
   f/8.9 reflector + CCD.
(I52) Steward Observatory, Mt. Lemmon Station  (N32.442570 W110.788920)
   US/Arizona.  Observers T. A. Pruyne, B. M. Africano, E. J. Christensen, G.
   A. Farneth, D. C. Fuls, A. R. Gibbs, A. D. Grauer, H. Gröller, J. A.
   Johnson, R. A. Kowalski, S. M. Larson, G. J. Leonard, D. Rankin, R. L.
   Seaman, F. C. Shelly, K. W. Wierzchoś. 1.0-m prime focus + CCD.
(P13) Baihuashan Observatory, Beijing  (N39.837554 E115.573330)  China.
(Y66) Two-Meter Twin Telescope, TTT2, Teide  (N28.298728 W16.509470)  Canary
   Islands (Spain).
(Z84) Calar Alto-Schmidt  (N37.224046 W2.548210)  Spain.  Observer R. Kresken.
    Measurers E. Schwab, D. Koschny, M. Micheli. 0.8-m f/3 Schmidt + CCD.

Orbital elements:  CALRMA2
   Perihelion 2024 Feb 20.90858 +/- 0.427 TT = 21:48:21 (JD 2460361.40858)
Epoch 2024 May 14.0 TT = JDT 2460444.5   Earth MOID: 0.0235   Me: 0.0579
M 123.53620319 +/- 1.0              (J2000 ecliptic)             AutoNEOCP
n   1.48675049 +/- 0.00492          Peri.  214.52068 +/- 0.27
a   0.76028657 +/- 0.00168          Node   205.92499 +/- 0.12
e   0.5171741 +/- 0.00319           Incl.   29.19984 +/- 0.45
P   0.66/242.13d           H 20.35  G  0.15   U  9.2
q 0.36708598 +/- 0.0018    Q 1.15348716 +/- 0.00476
From 43 observations 2024 May 13-14 (43.5 hr); mean residual 0".31
Residuals in arcseconds: 
240513 G96  .05-  .22+    240513 I52  .69-  .12-    240514 I52  .22-  .18-    
240513 G96  .02+  .14+    240513 P13  1.0+  1.2+    240514 I52  .07-  .07+    
240513 G96  .16+  .03-    240513 P13  .79-  .06-    240514 I52  .01+  .02+    
240513 G96  .17+  .01-    240513 033  .14-  .07+    240514 H01  .13-  .05-    
240513 I52  .47+  .07-    240513 033  .00   .16+    240514 H01  .14-  .03-    
240513 I52  .65-  .41-    240513 033  .22+  .16-    240514 H01  .23-  .07-    
240513 I52  .20-  .30-    240513 033  .23-  .03+    240514 H01  .31-  .19-    
240513 I52  .02+  .05+    240513 Z84  .50-  .35-    240514 033  .18+  .26-    
240513 H01  .05-  .05-    240513 Z84  .22-  .15+    240514 033  .06+  .36+    
240513 H01  .01+  .02-    240513 Y66  .44+  .35-    240514 033  .19+  .12-    
240513 H01  .08-  .13-    240513 Y66  .74+  .33-    240514 033  .43+  .12+    
240513 H01  .08-  .09-    240513 033  .07+  .01+    240514 033  .31-  .06+    
240513 I52  .20+  .22+    240513 033  .47+  .11+    240514 033  .25-  .60+    
240513 I52  .03+  .12-    240513 033  .15-  .39-    
240513 I52  .02-  .01-    240514 I52  .17-  .06-    

Ephemerides (geocentric):
Date (UTC) HH   RA             Dec           delta  r     elong  mag " sig PA
---- --------  ------------   ------------  ------ ------ -----  --- --------
2024 05 17 04  10 37 48.780   +32 15 59.72  .35453 1.0830  92.0 20.7 .733  22
2024 05 17 05  10 38 01.051   +32 15 59.19  .35494 1.0832  92.0 20.7 .747  22
2024 05 17 06  10 38 13.298   +32 15 58.57  .35536 1.0834  92.0 20.7 .760  21
2024 05 17 07  10 38 25.519   +32 15 57.85  .35578 1.0835  92.0 20.7 .774  21
2024 05 17 08  10 38 37.716   +32 15 57.04  .35619 1.0837  92.0 20.7 .787  21
2024 05 17 09  10 38 49.888   +32 15 56.13  .35661 1.0839  92.0 20.7 .801  21
2024 05 17 10  10 39 02.036   +32 15 55.13  .35703 1.0841  92.0 20.7 .815  21
2024 05 17 11  10 39 14.159   +32 15 54.04  .35745 1.0842  92.0 20.7 .829  20
2024 05 17 12  10 39 26.257   +32 15 52.86  .35786 1.0844  92.0 20.7 .843  20
2024 05 17 13  10 39 38.331   +32 15 51.59  .35828 1.0846  92.0 20.7 .857  20
2024 05 17 14  10 39 50.381   +32 15 50.23  .35870 1.0847  92.0 20.7 .872  20
2024 05 17 15  10 40 02.406   +32 15 48.77  .35912 1.0849  92.0 20.7 .886  20
2024 05 17 16  10 40 14.408   +32 15 47.23  .35953 1.0851  92.0 20.7 .901  19
2024 05 17 17  10 40 26.385   +32 15 45.60  .35995 1.0852  92.0 20.7 .916  19
2024 05 17 18  10 40 38.339   +32 15 43.88  .36037 1.0854  92.0 20.7 .931  19
2024 05 17 19  10 40 50.268   +32 15 42.07  .36079 1.0856  92.0 20.7 .946  19
2024 05 17 20  10 41 02.174   +32 15 40.17  .36120 1.0857  92.0 20.7 .961  19
2024 05 17 21  10 41 14.056   +32 15 38.18  .36162 1.0859  92.0 20.7 .977  18
2024 05 17 22  10 41 25.914   +32 15 36.11  .36204 1.0861  92.0 20.7 0.99  18
2024 05 17 23  10 41 37.748   +32 15 33.95  .36246 1.0862  92.0 20.7 1.01  18
2024 05 18 00  10 41 49.560   +32 15 31.71  .36287 1.0864  92.0 20.7 1.02  18
2024 05 18 01  10 42 01.347   +32 15 29.38  .36329 1.0866  92.0 20.7 1.04  18
2024 05 18 02  10 42 13.112   +32 15 26.96  .36371 1.0867  92.0 20.7 1.06  18
2024 05 18 03  10 42 24.853   +32 15 24.46  .36413 1.0869  92.0 20.7 1.07  18
2024 05 18 04  10 42 36.570   +32 15 21.88  .36455 1.0871  92.0 20.7 1.09  17
2024 05 18 05  10 42 48.265   +32 15 19.21  .36497 1.0872  92.0 20.7 1.10  17
2024 05 18 06  10 42 59.937   +32 15 16.46  .36538 1.0874  92.0 20.8 1.12  17
2024 05 18 07  10 43 11.586   +32 15 13.63  .36580 1.0876  92.0 20.8 1.14  17
2024 05 18 08  10 43 23.211   +32 15 10.71  .36622 1.0877  92.0 20.8 1.15  17
2024 05 18 09  10 43 34.814   +32 15 07.71  .36664 1.0879  92.0 20.8 1.17  17
2024 05 18 10  10 43 46.395   +32 15 04.63  .36706 1.0881  92.0 20.8 1.19  16
2024 05 18 11  10 43 57.952   +32 15 01.47  .36747 1.0882  92.0 20.8 1.20  16
2024 05 18 12  10 44 09.487   +32 14 58.22  .36789 1.0884  92.0 20.8 1.22  16
2024 05 18 13  10 44 21.000   +32 14 54.90  .36831 1.0885  92.0 20.8 1.24  16
2024 05 18 14  10 44 32.490   +32 14 51.50  .36873 1.0887  92.0 20.8 1.26  16
2024 05 18 15  10 44 43.958   +32 14 48.01  .36915 1.0889  92.0 20.8 1.27  16
2024 05 18 16  10 44 55.403   +32 14 44.45  .36957 1.0890  92.0 20.8 1.29  16
2024 05 18 17  10 45 06.826   +32 14 40.81  .36999 1.0892  92.0 20.8 1.31  15
2024 05 18 18  10 45 18.227   +32 14 37.09  .37040 1.0894  92.0 20.8 1.33  15
2024 05 18 19  10 45 29.606   +32 14 33.29  .37082 1.0895  92.0 20.8 1.34  15
2024 05 18 20  10 45 40.963   +32 14 29.42  .37124 1.0897  92.0 20.8 1.36  15
2024 05 18 21  10 45 52.298   +32 14 25.46  .37166 1.0898  92.0 20.8 1.38  15
2024 05 18 22  10 46 03.611   +32 14 21.43  .37208 1.0900  92.0 20.8 1.40  15
2024 05 18 23  10 46 14.903   +32 14 17.33  .37250 1.0902  92.0 20.8 1.42  15
2024 05 19 00  10 46 26.172   +32 14 13.14  .37292 1.0903  92.0 20.8 1.44  15
2024 05 19 01  10 46 37.420   +32 14 08.89  .37334 1.0905  92.0 20.8 1.45  14
2024 05 19 02  10 46 48.647   +32 14 04.55  .37376 1.0907  92.0 20.8 1.47  14
2024 05 19 03  10 46 59.852   +32 14 00.14  .37417 1.0908  92.0 20.8 1.49  14